STARLINK-31368, 58970

Orbit data source: Space-Track

STARLINK-31368, 58970 is a payload satellite owned by SpaceX/Seattle (US) in LEO that was launched on Thu, 15 Feb 2024 UTC via an FALCON 9 launch vehicle from the Air Force Western Test Range (AFWTR). Payload-class satellites include a variety of spacecraft equipped with specific instruments for various scientific and technological missions. These include communications satellites like Starlink; space stations such as the ISS; scientific satellites like the Hubble; Earth observation satellites from companies like Planet Labs, Umbra, and HawkEye 360; GPS; miniature CubeSats for education and research; and military/defense satellites.

Loading next visibility...
Identifier
58970, 2024-031F
Orbit
LEO
Country
Flag of USUS
Related business
Manufacturer
SpaceX/Seattle
Mission
Operational Commercial Communications
Bus & Motor
STARLINK V2M, Unknown motor
Mass
730 kg wet, ~700 kg dry
Launch date (UTC)
2024-02-15 (2 years ago)
Launch vehicle
FALCON 9
Launch site
Air Force Western Test Range (AFWTR)
Object type
Payload
Rocket body
Debris
Shape & HBR
Box + 2 Pan, 17.7 m
Radar Cross Section
33.884 m², Large (>1 m²)

Expand to show TLE details & history
Last TLE update: 2 days ago

TLE from 2 days ago
0 STARLINK-31368
1 58970U 24031F   26171.34302387  .00000550  00000-0  30683-4 0  9990
2 58970  53.1591 179.6203 0001089  83.5377 276.5747 15.30193662132251
Epoch: 2026-06-20T08:13Z
TLE epoch observation values (Epoch: 2026-06-20T08:13:57.262Z)
Latitude
-0.00007°
Longitude
147.57264°
Altitude
476.048 km
Speed
7.629 km/s
True Right ascension
11h 58m 28s
True Declination
0° 00' 00"
Sunlit
Object was in daylight at epoch
Visualization orbit readout
Latitude
Unknown
Longitude
Unknown
Altitude
Unknown
Speed
Unknown
Apparent Right ascension
Unknown
Apparent Declination
Unknown
Sunlit
N/A
Visualization observer readout
Local Sidereal Time
21:23:34
Azimuth
Unknown
Elevation
Unknown
Doppler factor
Unknown
Orbital elements
Apogee altitude
476.237 km
Perigee altitude
474.744 km
Semi-major axis
6,853.628 km
Eccentricity
0.00011
Inclination
53.1591°
RAAN
179.6203°
Arg. of periapsis
83.5377°
True anomaly
276.5623°
Mean anomaly
276.5747°
Eccentric anomaly
276.5685°
Mean motion
3.82527 °/min
Orbital period
94.11 mins
BSTAR
0.000030683
Loading maneuver chart data...
Computing Atmospheric mass density...
Loading historical data...
Loading historical data...
Loading historical data...
Loading historical data...
Loading historical data...
Loading historical data...
Loading historical data...

Documentation

Showing up to 5 results
|